Payson, AZ

5:08 AM MST on February 25, 2017 (GMT -0700)
Payson

Weather History for KPAN - October, 2012

Change the Weather History Date:

Monday, October 29, 2012

  Actual Average Record
Temperature  
Mean Temperature 60 °F -  
Max Temperature 73 °F 67 °F 77 °F (2016)
Min Temperature 46 °F 35 °F 39 °F (2013)
Degree Days  
Heating Degree Days 6    
Growing Degree Days 10 (Base 50)    
Moisture  
Dew Point 14 °F    
Average Humidity 20    
Maximum Humidity 30    
Minimum Humidity 8    
Precipitation  
Precipitation 0.00 in - - ()
Sea Level Pressure  
Sea Level Pressure 30.25 in    
Wind  
Wind Speed 3 mph (West)    
Max Wind Speed 9 mph    
Max Gust Speed -    
Visibility 10 miles    
Events      
Averages and records for this station are not official NWS values.
T = Trace of Precipitation, MM = Missing Value Source: NWS Daily Summary

Daily Weather History Graph

Daily Weather History Graph

Search for Another Location

Airport or City:

Trip Planner

Search our weather history database for the weather conditions in past years. The results will help you decide how hot, cold, wet, or windy it might be!

Date:

Astronomy

Oct. 29, 2012 Rise Set
Actual Time 6:43 AM MST 5:34 PM MST
Civil Twilight 6:17 AM MST 6:00 PM MST
Nautical Twilight 5:47 AM MST 6:29 PM MST
Astronomical Twilight 5:18 AM MST 6:59 PM MST
Moon 5:30 PM MST (10/29) 6:35 AM MST (10/29)
Length of Visible Light 11h 43m
Length of Day
10h 51m
Full, 100% of the Moon is Illuminated
Oct 29
Full
Oct 29
Full
Nov 6
Last Quarter
Nov 13
New
Nov 20
First Quarter

Hourly Weather History & Observations

Time (MST) Temp. Windchill Dew Point Humidity Pressure Visibility Wind Dir Wind Speed Gust Speed Precip Events Conditions
12:15 AM 51.8 °F - 15.8 °F 24% 30.23 in 10.0 mi WNW 3.5 mph - N/A   Clear
12:35 AM 50.0 °F - 15.8 °F 26% 30.23 in 10.0 mi WNW 3.5 mph - N/A   Clear
12:55 AM 48.2 °F - 15.8 °F 27% 30.23 in 10.0 mi WNW 3.5 mph - N/A   Clear
1:15 AM 48.2 °F - 15.8 °F 27% 30.23 in 10.0 mi NW 3.5 mph - N/A   Clear
1:35 AM 48.2 °F - 15.8 °F 27% 30.23 in 10.0 mi WNW 3.5 mph - N/A   Clear
1:55 AM 48.2 °F - 15.8 °F 27% 30.24 in 10.0 mi NW 3.5 mph - N/A   Clear
2:15 AM 48.2 °F - 15.8 °F 27% 30.24 in 10.0 mi WNW 3.5 mph - N/A   Clear
2:35 AM 46.4 °F 45.2 °F 15.8 °F 29% 30.24 in 10.0 mi WNW 3.5 mph - N/A   Clear
2:55 AM 46.4 °F 45.2 °F 15.8 °F 29% 30.23 in 10.0 mi WNW 3.5 mph - N/A   Clear
3:15 AM 46.4 °F 45.2 °F 15.8 °F 29% 30.23 in 10.0 mi WNW 3.5 mph - N/A   Clear
3:35 AM 46.4 °F - 15.8 °F 29% 30.23 in 10.0 mi Calm Calm - N/A   Clear
3:55 AM 48.2 °F - 14.0 °F 25% 30.23 in 10.0 mi Calm Calm - N/A   Clear
4:15 AM 46.4 °F 45.2 °F 15.8 °F 29% 30.23 in 10.0 mi WNW 3.5 mph - N/A   Clear
4:55 AM 46.4 °F - 14.0 °F 27% 30.23 in 10.0 mi Calm Calm - N/A   Clear
5:15 AM 46.4 °F - 14.0 °F 27% 30.23 in 10.0 mi Calm Calm - N/A   Clear
5:35 AM 46.4 °F 45.2 °F 14.0 °F 27% 30.24 in 10.0 mi WNW 3.5 mph - N/A   Clear
5:55 AM 46.4 °F - 14.0 °F 27% 30.24 in 10.0 mi Calm Calm - N/A   Clear
6:15 AM 46.4 °F 45.2 °F 14.0 °F 27% 30.25 in 10.0 mi WNW 3.5 mph - N/A   Clear
6:35 AM 46.4 °F - 14.0 °F 27% 30.25 in 10.0 mi Calm Calm - N/A   Clear
6:55 AM 48.2 °F - 14.0 °F 25% 30.25 in 10.0 mi Calm Calm - N/A   Clear
7:15 AM 48.2 °F - 14.0 °F 25% 30.26 in 10.0 mi Calm Calm - N/A   Clear
7:35 AM 48.2 °F - 15.8 °F 27% 30.27 in 10.0 mi Calm Calm - N/A   Clear
7:55 AM 48.2 °F - 17.6 °F 30% 30.28 in 10.0 mi Calm Calm - N/A   Clear
8:15 AM 51.8 °F - 17.6 °F 26% 30.28 in 9.0 mi Calm Calm - N/A   Clear
8:35 AM 59.0 °F - 15.8 °F 19% 30.28 in 10.0 mi Calm Calm - N/A   Clear
8:55 AM 62.6 °F - 15.8 °F 16% 30.29 in 10.0 mi Calm Calm - N/A   Clear
9:15 AM 64.4 °F - 17.6 °F 16% 30.29 in 10.0 mi Calm Calm - N/A   Clear
9:35 AM 66.2 °F - 17.6 °F 15% 30.29 in 10.0 mi SE 3.5 mph - N/A   Clear
9:55 AM 68.0 °F - 17.6 °F 15% 30.29 in 9.0 mi Calm Calm - N/A   Clear
10:15 AM 68.0 °F - 17.6 °F 15% 30.29 in 10.0 mi ESE 3.5 mph - N/A   Clear
10:55 AM 69.8 °F - 10.4 °F 10% 30.29 in 10.0 mi Calm Calm - N/A   Clear
11:15 AM 71.6 °F - 8.6 °F 9% 30.29 in 10.0 mi SW 4.6 mph - N/A   Clear
11:55 AM 71.6 °F - 10.4 °F 9% 30.28 in 10.0 mi South 5.8 mph - N/A   Clear
12:15 PM 71.6 °F - 10.4 °F 9% 30.27 in 10.0 mi South 5.8 mph - N/A   Clear
12:35 PM 73.4 °F - 10.4 °F 9% 30.26 in 10.0 mi South 5.8 mph - N/A   Clear
12:55 PM 73.4 °F - 10.4 °F 9% 30.25 in 10.0 mi SW 6.9 mph - N/A   Clear
1:15 PM 73.4 °F - 10.4 °F 9% 30.25 in 9.0 mi West 6.9 mph - N/A   Clear
1:35 PM 73.4 °F - 12.2 °F 10% 30.24 in 9.0 mi West 9.2 mph - N/A   Clear
1:55 PM 73.4 °F - 10.4 °F 9% 30.23 in 9.0 mi WSW 9.2 mph - N/A   Clear
2:15 PM 73.4 °F - 10.4 °F 9% 30.23 in 10.0 mi SW 6.9 mph - N/A   Clear
2:35 PM 73.4 °F - 10.4 °F 9% 30.23 in 10.0 mi West 5.8 mph - N/A   Clear
3:15 PM 73.4 °F - 6.8 °F 8% 30.22 in 10.0 mi WNW 8.1 mph - N/A   Clear
3:35 PM 73.4 °F - 8.6 °F 8% 30.22 in 10.0 mi West 6.9 mph - N/A   Clear
3:55 PM 73.4 °F - 10.4 °F 9% 30.22 in 10.0 mi WSW 9.2 mph - N/A   Clear
4:15 PM 73.4 °F - 12.2 °F 10% 30.22 in 10.0 mi West 9.2 mph - N/A   Clear
4:35 PM 71.6 °F - 14.0 °F 11% 30.21 in 10.0 mi West 8.1 mph - N/A   Clear
4:55 PM 71.6 °F - 14.0 °F 11% 30.21 in 10.0 mi West 9.2 mph - N/A   Clear
5:15 PM 69.8 °F - 14.0 °F 12% 30.21 in 10.0 mi WSW 5.8 mph - N/A   Clear
5:35 PM 68.0 °F - 15.8 °F 13% 30.22 in 10.0 mi WSW 4.6 mph - N/A   Clear
5:55 PM 66.2 °F - 15.8 °F 14% 30.22 in 10.0 mi West 4.6 mph - N/A   Clear
8:35 PM 55.4 °F - 17.6 °F 23% 30.24 in 10.0 mi NNW 4.6 mph - N/A   Clear
8:55 PM 53.6 °F - 17.6 °F 24% 30.24 in 10.0 mi NNW 3.5 mph - N/A   Clear
9:15 PM 51.8 °F - 15.8 °F 24% 30.25 in 10.0 mi NW 3.5 mph - N/A   Clear
9:35 PM 51.8 °F - 17.6 °F 26% 30.25 in 10.0 mi NW 3.5 mph - N/A   Clear
9:55 PM 51.8 °F - 15.8 °F 24% 30.25 in 10.0 mi NW 5.8 mph - N/A   Clear
10:15 PM 50.0 °F - 15.8 °F 26% 30.25 in 10.0 mi NW 5.8 mph - N/A   Clear
10:35 PM 51.8 °F - 15.8 °F 24% 30.24 in 10.0 mi NW 4.6 mph - N/A   Clear
10:55 PM 48.2 °F - 17.6 °F 30% 30.24 in 10.0 mi NW 4.6 mph - N/A   Clear
11:15 PM 48.2 °F - 17.6 °F 30% 30.25 in 10.0 mi Calm Calm - N/A   Clear
11:35 PM 48.2 °F - 17.6 °F 30% 30.24 in 10.0 mi Calm Calm - N/A   Clear
11:55 PM 48.2 °F - 17.6 °F 30% 30.24 in 10.0 mi NW 3.5 mph - N/A   Clear